Meridian, MS

2:15 AM CST on December 08, 2019 (GMT -0600)
Key

Weather History for KMEI - October, 2019

Change the Weather History Date:

Monday, October 14, 2019

  Actual Average Record
Temperature  
Mean Temperature 66 °F 65 °F  
Max Temperature 75 °F 78 °F 91 °F (1953)
Min Temperature 59 °F 52 °F 34 °F (1988)
Degree Days  
Heating Degree Days 0 3  
Month to date heating degree days 28  
Since 1 July heating degree days 35  
Cooling Degree Days 1 3  
Month to date cooling degree days 58  
Year to date cooling degree days 1981  
Growing Degree Days 16 (Base 50)    
Moisture  
Dew Point 56 °F    
Average Humidity 72    
Maximum Humidity 90    
Minimum Humidity 49    
Precipitation  
Precipitation 0.00 in 0.12 in 0.56 in (1995)
Month to date precipitation 1.62  
Year to date precipitation 44.01  
Sea Level Pressure  
Sea Level Pressure 30.08 in    
Wind  
Wind Speed 4 mph ()    
Max Wind Speed 9 mph    
Max Gust Speed -    
Visibility 10.0 miles    
Events      
T = Trace of Precipitation, MM = Missing Value Source: Averaged Metar Reports

Daily Weather History Graph

Daily Weather History Graph

Search for Another Location

Airport or City:

Astronomy

Oct. 14, 2019 Rise Set
Actual Time 6:57 AM CDT 6:23 PM CDT
Civil Twilight 6:33 AM CDT 6:48 PM CDT
Nautical Twilight 6:04 AM CDT 7:16 PM CDT
Astronomical Twilight 5:36 AM CDT 7:45 PM CDT
Moon 7:14 PM CDT (10/14) 7:30 AM CDT (10/14)
Length of Visible Light 12h 15m
Length of Day
11h 25m
Full, 99% of the Moon is Illuminated
Oct 14
Full
Oct 21
Last Quarter
Oct 27
New
Nov 4
First Quarter
Nov 12
Full

Hourly Weather History & Observations

Time (CDT) Temp. Dew Point Humidity Pressure Visibility Wind Dir Wind Speed Gust Speed Precip Events Conditions
12:58 AM 59.0 °F 55.0 °F 87% 30.07 in 10.0 mi NNW 3.5 mph - N/A   Overcast
1:58 AM 59.0 °F 55.0 °F 87% 30.07 in 10.0 mi NNW 3.5 mph - N/A   Overcast
2:58 AM 59.0 °F 54.0 °F 83% 30.07 in 10.0 mi NE 3.5 mph - N/A   Overcast
3:58 AM 59.0 °F 54.0 °F 83% 30.06 in 10.0 mi Calm Calm - N/A   Overcast
4:58 AM 59.0 °F 54.0 °F 83% 30.07 in 10.0 mi NE 8.1 mph - N/A   Mostly Cloudy
5:58 AM 59.0 °F 53.1 °F 81% 30.09 in 10.0 mi NE 4.6 mph - N/A   Overcast
6:58 AM 59.0 °F 53.1 °F 81% 30.09 in 10.0 mi NE 8.1 mph - N/A   Overcast
7:58 AM 59.0 °F 53.1 °F 81% 30.11 in 10.0 mi NNE 8.1 mph - N/A   Overcast
8:58 AM 62.1 °F 53.1 °F 72% 30.13 in 10.0 mi NE 4.6 mph - N/A   Overcast
9:58 AM 64.9 °F 53.1 °F 65% 30.14 in 10.0 mi NNE 4.6 mph - N/A   Overcast
10:58 AM 70.0 °F 51.1 °F 51% 30.13 in 10.0 mi NE 9.2 mph - N/A   Mostly Cloudy
11:58 AM 72.0 °F 52.0 °F 49% 30.12 in 10.0 mi ENE 8.1 mph - N/A   Partly Cloudy
12:58 PM 72.0 °F 54.0 °F 53% 30.10 in 10.0 mi ENE 4.6 mph - N/A   Scattered Clouds
1:58 PM 73.9 °F 57.0 °F 55% 30.07 in 10.0 mi ESE 5.8 mph - N/A   Clear
2:58 PM 73.9 °F 57.9 °F 57% 30.06 in 10.0 mi ESE 5.8 mph - N/A   Clear
3:58 PM 73.9 °F 59.0 °F 59% 30.06 in 10.0 mi NE 6.9 mph - N/A   Clear
4:58 PM 72.0 °F 59.0 °F 64% 30.06 in 10.0 mi East 4.6 mph - N/A   Partly Cloudy
5:58 PM 71.1 °F 59.0 °F 66% 30.06 in 10.0 mi NE 4.6 mph - N/A   Clear
6:58 PM 69.1 °F 59.0 °F 70% 30.07 in 10.0 mi East 4.6 mph - N/A   Clear
8:58 PM 68.0 °F 59.0 °F 73% 30.07 in 10.0 mi Calm Calm - N/A   Partly Cloudy
9:58 PM 66.0 °F 60.1 °F 81% 30.08 in 10.0 mi Calm Calm - N/A   Partly Cloudy
10:58 PM 66.9 °F 60.1 °F 79% 30.07 in 10.0 mi Calm Calm - N/A   Scattered Clouds
11:58 PM 64.9 °F 62.1 °F 90% 30.07 in 10.0 mi Calm Calm - 0.00 in   Mostly Cloudy